Location: Byszew
(52.1813°N, 19.2693°E)
Time: 00:38:21
(UTC+00:00)

USA 186 - Pass Details

Date: 03 March 2021
Orbit: 261 x 430 km, 96.9° (Epoch: 08 April)

Event Time Altitude Azimuth Distance (km) Brightness Sun altitude
Exits shadow 18:28:28 43° 273° (W) 426 2.2 -19.4°
Drops below altitude 10° 18:30:44 10° 336° (NNW) 1,189 4.6 -19.7°
Sets 18:32:43 0° 343° (NNW) 2,055 5.7 -20.0°
